• In Uzbekistan
  • List of Countries
  • For 7 days
  • Water Temperature
  • Weather Map
  • Weather Widgets
  • user-avatar
    Login

    Hourly Weather Chornomorsk (Illichevsk)

    Today, 24 January, Friday

    Time Temperature Precipitation Wind Pressure Humidity
    00:00 -3°C° 0 mm 6 mps 770 mmHg 71%
    01:00 -3°C° 0 mm 6 mps 770 mmHg 74%
    02:00 -4°C° 0 mm 5 mps 770 mmHg 77%
    03:00 -4°C° 0 mm 5 mps 770 mmHg 78%
    04:00 -4°C° 0 mm 5 mps 769 mmHg 80%
    05:00 -3°C° 0 mm 4 mps 769 mmHg 81%
    06:00 -3°C° 0 mm 4 mps 769 mmHg 81%
    07:00 -3°C° 0 mm 4 mps 770 mmHg 81%
    08:00 -2°C° 0 mm 3 mps 770 mmHg 81%
    09:00 -2°C° 0 mm 4 mps 770 mmHg 73%
    10:00 0°C° 0 mm 5 mps 770 mmHg 64%
    11:00 +1°C° 0 mm 6 mps 769 mmHg 56%
    12:00 +2°C° 0 mm 6 mps 769 mmHg 52%
    13:00 +3°C° 0 mm 6 mps 768 mmHg 48%
    14:00 +4°C° 0 mm 6 mps 768 mmHg 44%
    15:00 +3°C° 0 mm 6 mps 768 mmHg 48%
    16:00 +2°C° 0 mm 5 mps 767 mmHg 52%
    17:00 +1°C° 0 mm 5 mps 767 mmHg 56%
    18:00 +1°C° 0 mm 5 mps 767 mmHg 57%
    19:00 +1°C° 0 mm 5 mps 766 mmHg 58%
    20:00 -1°C° 0 mm 6 mps 766 mmHg 59%
    21:00 -1°C° 0 mm 6 mps 766 mmHg 59%
    22:00 -1°C° 0 mm 6 mps 765 mmHg 58%
    23:00 -1°C° 0 mm 6 mps 765 mmHg 58%

    Tomorrow, 25 January, Saturday

    Time Temperature Precipitation Wind Pressure Humidity
    00:00 -1°C° 0 mm 6 mps 765 mmHg 58%
    01:00 -1°C° 0 mm 6 mps 764 mmHg 57%
    02:00 -1°C° 0 mm 6 mps 764 mmHg 57%
    03:00 -2°C° 0 mm 6 mps 763 mmHg 59%
    04:00 -2°C° 0 mm 6 mps 763 mmHg 60%
    05:00 -2°C° 0 mm 5 mps 763 mmHg 62%
    06:00 -2°C° 0 mm 5 mps 763 mmHg 64%
    07:00 -4°C° 0 mm 5 mps 763 mmHg 67%
    08:00 -3°C° 0 mm 4 mps 763 mmHg 70%
    09:00 -1°C° 0 mm 4 mps 763 mmHg 62%
    10:00 0°C° 0 mm 4 mps 763 mmHg 54%
    11:00 +3°C° 0 mm 4 mps 763 mmHg 47%
    12:00 +4°C° 0 mm 4 mps 763 mmHg 44%
    13:00 +5°C° 0 mm 4 mps 763 mmHg 41%
    14:00 +6°C° 0 mm 4 mps 763 mmHg 38%
    15:00 +5°C° 0 mm 4 mps 763 mmHg 41%
    16:00 +4°C° 0 mm 4 mps 763 mmHg 44%
    17:00 +3°C° 0 mm 3 mps 763 mmHg 47%
    18:00 +3°C° 0 mm 3 mps 763 mmHg 49%
    19:00 +1°C° 0 mm 4 mps 763 mmHg 52%
    20:00 +1°C° 0 mm 4 mps 764 mmHg 54%
    21:00 0°C° 0 mm 4 mps 764 mmHg 55%
    22:00 0°C° 0 mm 4 mps 764 mmHg 56%
    23:00 0°C° 0 mm 4 mps 764 mmHg 57%

    Day after tomorrow, 26 January, Sunday

    Time Temperature Precipitation Wind Pressure Humidity
    00:00 -1°C° 0 mm 4 mps 764 mmHg 57%
    01:00 -1°C° 0 mm 4 mps 765 mmHg 57%
    02:00 -1°C° 0 mm 4 mps 765 mmHg 57%
    03:00 -1°C° 0 mm 4 mps 765 mmHg 58%
    04:00 -1°C° 0 mm 4 mps 765 mmHg 60%
    05:00 -1°C° 0 mm 3 mps 765 mmHg 61%
    06:00 0°C° 0 mm 3 mps 765 mmHg 63%
    07:00 0°C° 0 mm 3 mps 765 mmHg 66%
    08:00 0°C° 0 mm 3 mps 766 mmHg 68%
    09:00 +2°C° 0 mm 2 mps 766 mmHg 65%
    10:00 +3°C° 0 mm 2 mps 767 mmHg 62%
    11:00 +5°C° 0 mm 2 mps 767 mmHg 59%
    12:00 +5°C° 0 mm 2 mps 767 mmHg 58%
    13:00 +7°C° 0 mm 1 mps 767 mmHg 57%
    14:00 +8°C° 0 mm 1 mps 766 mmHg 56%
    15:00 +7°C° 0 mm 1 mps 767 mmHg 60%
    16:00 +6°C° 0 mm 1 mps 767 mmHg 64%
    17:00 +5°C° 0 mm 1 mps 767 mmHg 68%
    18:00 +5°C° 0 mm 1 mps 767 mmHg 71%
    19:00 +4°C° 0 mm 2 mps 767 mmHg 73%
    20:00 +3°C° 0 mm 2 mps 767 mmHg 76%
    21:00 +3°C° 0 mm 2 mps 767 mmHg 78%
    22:00 +3°C° 0 mm 2 mps 767 mmHg 80%
    23:00 +3°C° 0 mm 2 mps 767 mmHg 82%

    27 January, Monday

    Time Temperature Precipitation Wind Pressure Humidity
    00:00 +3°C° 0 mm 2 mps 767 mmHg 83%
    01:00 +3°C° 0 mm 2 mps 767 mmHg 84%
    02:00 +2°C° 0 mm 2 mps 767 mmHg 85%
    03:00 +2°C° 0 mm 2 mps 767 mmHg 86%
    04:00 +2°C° 0 mm 2 mps 767 mmHg 86%
    05:00 +2°C° 0 mm 2 mps 766 mmHg 87%
    06:00 +3°C° 0 mm 2 mps 766 mmHg 87%
    07:00 +2°C° 0 mm 3 mps 766 mmHg 88%
    08:00 +2°C° 0 mm 3 mps 766 mmHg 88%
    09:00 +3°C° 0 mm 4 mps 766 mmHg 83%
    10:00 +5°C° 0 mm 4 mps 766 mmHg 78%
    11:00 +6°C° 0 mm 4 mps 766 mmHg 72%
    12:00 +6°C° 0 mm 4 mps 765 mmHg 73%
    13:00 +7°C° 0 mm 4 mps 764 mmHg 74%
    14:00 +7°C° 0 mm 4 mps 764 mmHg 75%
    15:00 +6°C° 0 mm 4 mps 763 mmHg 79%
    16:00 +6°C° 0 mm 4 mps 763 mmHg 82%
    17:00 +5°C° 0 mm 4 mps 763 mmHg 86%
    18:00 +5°C° 0 mm 4 mps 762 mmHg 88%
    19:00 +5°C° 0 mm 3 mps 762 mmHg 91%
    20:00 +5°C° 0 mm 3 mps 762 mmHg 94%
    21:00 +5°C° 0 mm 3 mps 762 mmHg 94%
    22:00 +5°C° 0 mm 3 mps 762 mmHg 94%
    23:00 +5°C° 0 mm 3 mps 762 mmHg 95%

    28 January, Tuesday

    Time Temperature Precipitation Wind Pressure Humidity
    00:00 +6°C° 0.1 mm 2 mps 761 mmHg 95%
    01:00 +6°C° 0.1 mm 2 mps 761 mmHg 96%
    02:00 +6°C° 0.1 mm 2 mps 761 mmHg 96%
    03:00 +6°C° 0.6 mm 2 mps 760 mmHg 96%
    04:00 +7°C° 0.6 mm 1 mps 760 mmHg 97%
    05:00 +7°C° 0.6 mm 1 mps 760 mmHg 97%
    06:00 +6°C° 0.4 mm 2 mps 760 mmHg 97%
    07:00 +6°C° 0.4 mm 2 mps 760 mmHg 97%
    08:00 +5°C° 0.4 mm 3 mps 760 mmHg 97%
    09:00 +7°C° 0.1 mm 3 mps 760 mmHg 94%
    10:00 +7°C° 0.1 mm 3 mps 760 mmHg 92%
    11:00 +7°C° 0.1 mm 3 mps 761 mmHg 89%
    12:00 +7°C° 0 mm 3 mps 760 mmHg 89%
    13:00 +8°C° 0 mm 2 mps 760 mmHg 88%
    14:00 +8°C° 0 mm 2 mps 760 mmHg 88%
    15:00 +7°C° 0 mm 2 mps 760 mmHg 89%
    16:00 +7°C° 0 mm 2 mps 760 mmHg 90%
    17:00 +7°C° 0 mm 2 mps 760 mmHg 92%
    18:00 +7°C° 0 mm 2 mps 760 mmHg 93%
    19:00 +5°C° 0 mm 3 mps 760 mmHg 93%
    20:00 +5°C° 0 mm 3 mps 761 mmHg 94%
    21:00 +5°C° 0 mm 3 mps 761 mmHg 95%
    22:00 +5°C° 0 mm 3 mps 761 mmHg 95%
    23:00 +4°C° 0 mm 3 mps 761 mmHg 95%

    29 January, Wednesday

    Time Temperature Precipitation Wind Pressure Humidity
    00:00 +4°C° 0 mm 4 mps 761 mmHg 95%
    01:00 +4°C° 0 mm 4 mps 761 mmHg 94%
    02:00 +4°C° 0 mm 4 mps 761 mmHg 94%
    03:00 +4°C° 0 mm 4 mps 760 mmHg 93%
    04:00 +4°C° 0 mm 4 mps 760 mmHg 92%
    05:00 +4°C° 0 mm 4 mps 760 mmHg 91%
    06:00 +4°C° 0 mm 4 mps 760 mmHg 91%
    07:00 +2°C° 0 mm 5 mps 760 mmHg 91%
    08:00 +2°C° 0 mm 5 mps 760 mmHg 90%
    09:00 +5°C° 0 mm 5 mps 760 mmHg 83%
    10:00 +6°C° 0 mm 5 mps 760 mmHg 76%
    11:00 +7°C° 0 mm 5 mps 760 mmHg 69%
    12:00 +8°C° 0 mm 5 mps 760 mmHg 66%
    13:00 +8°C° 0 mm 5 mps 759 mmHg 63%
    14:00 +9°C° 0 mm 6 mps 758 mmHg 60%
    15:00 +8°C° 0 mm 6 mps 758 mmHg 64%
    16:00 +8°C° 0 mm 6 mps 758 mmHg 68%
    17:00 +7°C° 0 mm 6 mps 758 mmHg 71%
    18:00 +7°C° 0 mm 6 mps 758 mmHg 74%
    19:00 +5°C° 0 mm 6 mps 758 mmHg 77%
    20:00 +5°C° 0 mm 6 mps 758 mmHg 80%
    21:00 +5°C° 0 mm 7 mps 757 mmHg 81%
    22:00 +5°C° 0 mm 7 mps 757 mmHg 82%
    23:00 +5°C° 0 mm 7 mps 757 mmHg 83%
    Show more